GFSFLT1_500_spd_273.txt.gz
Wind_Speed
7 8 10 12 12 14 16 16 21 18 18 20 22 22 21 22 28 15 12 14 12 10 5 6 3 4 8 11 13 11 10 9 10
15 13 12 13 17 16 14 13 15 16 17 21 21 20 18 13 15 15 13 10 8 7 6 6 8 8 11 12 14 14 14 13 14
12 11 12 15 19 16 11 11 14 12 15 20 22 18 14 15 16 16 15 14 11 10 11 13 13 14 14 16 17 17 17 17 18
11 5 5 8 12 13 11 14 15 12 15 19 21 18 17 15 15 17 17 16 16 17 18 19 20 19 18 18 20 20 21 20 20
8 11 13 12 12 12 14 16 15 14 19 20 19 19 19 19 19 19 19 17 16 17 18 19 21 23 24 24 24 24 24 24 24
7 11 14 14 11 10 12 14 14 16 19 20 21 23 23 21 22 24 24 22 22 22 21 22 23 25 27 28 27 28 27 27 26
9 9 12 14 13 10 11 14 15 16 16 19 22 24 23 23 23 24 23 21 21 25 29 29 30 31 30 30 30 30 30 30 27
8 9 11 16 9 10 12 13 16 17 19 20 20 21 23 24 25 27 28 29 30 33 34 33 32 33 33 33 33 32 31 31 30
7 12 13 9 18 17 15 15 15 15 16 18 20 21 22 24 26 29 31 32 32 33 33 34 35 34 34 34 34 34 34 33 31
12 12 13 13 18 20 17 18 17 17 17 20 22 22 22 24 27 28 31 31 34 34 35 36 35 35 35 34 36 35 34 32 31
13 11 14 16 19 23 14 17 18 19 20 21 21 20 21 24 28 29 31 31 32 36 36 36 35 36 35 35 36 36 35 34 35
16 15 19 19 20 28 21 17 17 20 21 19 20 23 24 26 26 27 30 31 34 36 35 36 36 35 34 33 33 35 36 38 39
19 21 18 16 14 15 17 19 17 21 20 21 22 22 25 27 28 31 34 35 34 34 34 35 34 32 32 35 37 37 38 40 42
22 20 19 15 26 30 26 26 26 22 21 23 24 25 29 31 33 36 33 34 34 33 34 33 31 33 35 35 38 42 45 46 48
23 24 25 28 34 35 31 27 24 24 25 25 27 31 35 35 36 30 33 34 33 33 31 31 33 34 36 39 45 48 49 52 54
27 30 30 33 34 33 32 24 22 23 26 28 29 33 35 32 28 31 34 34 33 32 29 32 35 38 42 47 48 51 54 55 58
32 35 39 34 30 33 27 25 23 24 24 28 31 34 33 31 29 31 34 32 30 31 34 34 37 42 46 48 51 53 56 59 61
28 32 34 36 37 36 34 31 24 21 25 30 32 33 33 31 32 33 29 29 30 34 35 38 41 44 47 50 53 57 61 63 63
34 35 37 40 39 39 37 38 19 18 25 30 33 33 33 33 30 29 29 31 34 35 39 41 44 46 48 52 57 60 62 59 52
38 41 42 42 35 37 33 28 26 25 27 30 32 34 33 31 29 30 31 34 37 39 42 44 45 46 50 56 58 58 52 43 35

GFSFLT1_500_spd_276.txt.gz
Wind_Speed
9 12 16 12 13 15 18 19 14 11 10 9 10 15 15 8 16 15 15 15 16 18 17 11 5 4 9 11 9 10 13 11 13
11 16 18 16 15 16 20 20 12 12 12 8 10 13 12 11 11 13 14 13 12 13 13 11 9 9 12 14 15 15 17 19 21
9 11 9 10 13 17 21 14 11 15 11 6 9 10 9 10 11 13 12 12 11 11 11 11 12 12 12 12 14 15 17 20 21
7 10 11 12 12 13 11 10 12 14 13 12 11 10 11 12 13 13 12 11 10 10 11 12 13 14 15 16 17 19 21 23 24
4 7 9 10 13 12 11 12 15 13 13 13 12 12 13 14 14 14 12 11 10 11 12 14 15 17 19 21 22 24 25 25 26
12 7 8 10 14 13 11 11 12 13 14 14 14 16 15 14 14 14 12 12 13 14 17 19 21 23 24 25 25 26 28 28 30
18 15 11 7 14 11 13 14 13 15 15 15 17 17 15 16 17 17 17 18 21 23 25 24 24 25 27 28 29 29 28 29 29
17 18 12 11 5 11 11 12 13 14 16 18 18 17 19 21 22 20 21 22 25 25 25 26 27 29 30 30 29 30 31 30 29
12 13 12 13 12 15 17 14 13 15 15 18 19 19 21 24 25 25 25 26 28 28 25 27 30 31 30 30 32 32 30 31 30
15 13 13 11 15 14 18 19 16 15 18 21 21 22 24 26 25 27 28 30 30 29 31 32 33 35 32 33 33 31 31 30 29
18 21 17 18 16 17 22 24 20 17 18 21 20 24 25 25 26 26 28 31 32 35 39 38 34 34 34 35 33 30 29 30 30
22 22 23 22 16 15 14 20 18 17 21 21 20 23 24 26 26 29 32 34 38 38 39 37 35 33 35 37 33 32 31 31 34
19 22 25 23 22 19 21 27 28 26 28 24 23 23 25 28 29 32 35 37 38 37 35 33 33 34 35 33 34 35 37 39 43
24 27 27 27 25 23 27 30 30 29 30 27 25 26 29 30 34 36 36 35 35 37 37 35 35 32 33 35 36 38 42 46 47
28 30 31 32 30 28 29 33 35 33 30 27 27 30 32 31 34 38 37 35 35 38 37 34 33 33 35 37 40 42 45 48 51
28 31 31 29 30 35 35 36 37 37 32 30 30 31 31 33 34 35 35 35 37 33 33 35 34 34 37 41 44 46 48 51 53
32 31 33 34 36 37 39 41 38 39 37 37 36 30 31 33 34 34 33 36 33 33 35 36 36 37 40 44 46 49 50 53 59
34 36 37 38 37 38 40 40 40 38 38 39 38 25 28 30 32 33 34 34 33 34 36 37 38 41 43 45 48 50 52 58 57
36 38 42 44 44 38 39 41 37 32 37 31 27 30 29 31 32 34 33 32 33 36 38 39 41 43 46 49 50 54 56 57 54
33 36 42 47 41 42 42 43 36 26 35 39 36 30 29 32 32 33 32 32 33 37 40 41 44 45 47 48 52 55 58 52 44

GFSFLT1_500_spd_279.txt.gz
Wind_Speed
13 11 15 15 11 9 10 12 14 7 5 3 6 8 9 8 10 11 12 13 13 15 14 10 9 9 8 7 8 11 13 16 18
9 9 10 10 8 8 10 12 7 7 6 4 5 6 7 9 9 12 14 14 14 14 14 13 12 10 10 12 14 15 16 16 17
5 2 5 8 10 9 7 7 3 7 6 7 10 10 7 9 11 13 14 15 15 15 15 15 13 13 13 13 14 16 18 18 19
7 5 7 7 9 11 9 6 6 9 8 9 11 10 9 11 13 14 15 16 15 14 14 15 15 15 15 16 17 20 23 26 26
12 11 9 8 11 11 9 7 7 9 10 12 13 13 14 15 14 14 14 14 13 14 16 18 20 21 23 25 26 27 29 30 30
17 16 12 11 8 11 10 11 12 13 14 14 13 14 16 16 15 15 14 16 16 20 21 23 23 24 24 24 26 28 29 30 29
14 17 19 15 12 8 9 10 11 13 14 15 15 17 18 16 17 18 18 21 22 24 25 25 26 27 27 29 30 30 29 30 35
17 17 18 17 16 12 12 14 15 14 14 15 15 17 18 18 18 19 21 22 23 25 27 25 27 29 31 34 33 31 31 32 33
16 12 15 14 16 18 17 19 19 19 18 16 18 20 22 22 21 20 20 22 25 24 25 27 31 33 33 35 36 37 37 35 32
15 14 14 13 16 16 15 16 14 17 18 18 21 23 23 22 23 24 22 23 24 28 31 31 33 32 34 37 40 36 36 34 30
22 19 19 19 21 21 19 12 12 19 16 18 23 24 25 27 27 25 25 26 28 31 33 32 32 35 38 38 36 37 36 33 32
25 26 25 25 22 24 23 20 19 20 23 22 25 28 30 31 29 26 28 29 32 33 33 34 34 37 38 39 36 33 35 36 36
23 24 24 21 24 27 27 25 25 25 26 28 29 33 34 33 30 30 30 31 31 33 33 35 37 38 37 34 33 36 35 38 40
22 21 23 25 28 29 29 29 29 29 30 33 34 37 39 37 35 33 31 32 32 35 36 37 37 35 35 34 34 36 37 40 43
27 25 26 29 31 32 31 29 33 35 37 38 39 38 38 38 37 35 34 34 34 36 37 37 35 36 36 36 37 40 42 43 46
28 30 33 33 33 34 37 36 34 34 40 41 41 42 42 37 40 37 35 36 37 35 37 36 35 36 37 38 39 40 44 47 49
34 36 37 37 38 36 41 42 40 40 42 44 42 38 39 39 36 36 33 36 38 37 36 35 36 38 40 41 42 45 48 50 51
35 38 39 42 41 39 45 47 45 46 43 47 39 31 30 32 27 28 31 36 36 36 35 36 39 40 41 42 46 47 50 51 53
36 40 39 41 38 42 45 53 50 40 35 20 30 39 43 47 41 28 32 34 35 34 34 36 40 40 42 44 46 49 51 53 52
40 41 41 39 36 37 42 46 50 48 38 40 45 28 41 48 39 25 29 31 31 31 33 37 39 41 44 46 49 51 52 53 53

GFSFLT1_500_spd_285.txt.gz
Wind_Speed
11 19 14 10 5 2 2 2 3 1 4 3 4 7 7 8 7 8 10 13 12 13 15 16 16 17 16 16 16 17 17 17 18
8 6 8 8 8 11 9 10 11 2 5 4 5 7 6 6 7 9 10 11 12 12 12 12 14 15 16 16 17 18 18 18 19
8 5 6 8 9 11 12 11 9 7 8 7 7 8 8 8 8 11 8 7 10 9 11 12 13 16 18 17 16 15 17 16 19
9 1 3 5 7 8 8 12 9 7 9 10 10 10 11 11 11 11 10 9 10 12 12 14 15 15 18 18 18 18 17 19 23
3 4 6 6 7 8 8 11 9 8 8 8 9 12 12 12 11 10 11 12 14 14 14 17 17 18 19 17 19 23 23 23 24
11 10 11 10 11 12 12 11 11 8 7 7 8 10 10 9 10 12 14 15 16 16 17 19 20 19 20 22 24 25 26 24 26
13 15 15 13 12 12 8 10 9 10 12 12 11 11 11 12 15 17 16 15 16 18 20 22 22 24 24 27 27 27 24 27 28
11 11 14 16 12 12 11 10 10 9 7 7 8 8 10 12 16 17 16 17 20 22 24 27 27 27 28 29 28 28 27 28 31
20 13 16 17 10 9 10 7 7 10 7 8 9 9 10 13 15 17 19 21 23 24 27 30 31 30 29 33 30 30 30 29 31
20 25 17 16 14 16 14 13 11 12 11 14 13 13 13 16 19 22 24 27 29 27 26 29 32 30 27 33 32 32 32 33 33
38 38 41 23 21 22 23 20 18 18 17 17 17 19 20 21 25 28 30 32 33 30 31 29 29 29 28 30 33 33 34 35 36
41 42 45 38 28 25 27 27 24 25 23 22 22 22 24 25 28 33 35 38 38 35 36 31 29 30 30 31 33 34 35 36 39
37 45 49 46 37 33 30 31 29 29 28 25 22 23 25 27 28 32 36 40 41 43 37 37 34 34 32 34 36 36 36 39 40
32 34 39 39 36 35 35 33 30 30 29 30 26 28 32 33 34 38 39 41 36 29 35 36 34 33 33 35 34 35 38 40 43
36 33 28 33 36 35 33 33 33 34 33 33 29 29 35 35 34 35 38 43 34 30 34 33 34 36 36 33 33 35 38 41 45
34 36 29 30 33 35 36 36 41 38 34 35 33 35 37 34 33 34 38 38 27 38 31 35 38 36 33 31 32 37 39 42 47
32 32 31 31 32 35 35 32 38 28 32 38 39 40 37 39 41 33 22 22 29 30 37 34 33 28 29 31 35 40 42 47 51
31 33 36 35 37 35 32 32 34 43 32 41 43 43 39 41 41 24 23 26 30 37 39 31 27 26 29 35 39 41 44 48 52
35 38 39 40 41 39 36 34 35 36 37 44 43 25 37 12 30 20 29 33 33 39 33 20 22 26 32 36 39 42 45 49 48
42 38 39 38 37 36 36 33 34 37 40 39 40 36 41 38 35 35 34 34 35 38 20 23 27 32 33 36 39 43 48 44 39

GFSFLT1_500_spd_291.txt.gz
Wind_Speed
16 13 16 13 8 5 9 6 5 3 3 3 5 6 6 5 7 4 6 8 10 10 9 8 9 12 13 14 14 13 15 16 15
15 13 11 11 10 7 6 7 8 8 6 1 7 7 4 5 7 6 7 8 8 9 9 11 13 15 17 17 18 17 16 17 17
10 11 13 10 8 8 9 8 9 10 12 4 6 7 4 6 7 8 9 9 11 14 14 15 16 18 19 19 19 19 18 20 24
8 13 13 13 10 9 7 7 10 9 8 2 4 8 7 7 8 10 10 9 12 13 15 17 19 19 20 21 21 22 24 25 27
5 4 10 11 9 10 9 8 7 8 5 1 2 5 6 7 8 8 9 11 13 14 15 17 19 20 21 22 23 23 25 27 29
16 13 7 3 4 3 7 8 10 9 6 6 8 11 11 9 9 10 11 12 12 13 16 19 21 22 24 26 27 28 29 30 30
15 15 8 5 6 5 5 4 5 5 7 9 10 9 10 11 13 13 14 13 14 15 19 23 25 25 26 27 29 31 31 31 30
16 18 21 3 8 11 8 7 6 5 8 10 9 9 11 12 12 16 19 18 19 22 24 27 27 27 28 31 32 31 30 32 33
11 16 16 10 10 12 14 8 7 9 10 13 16 16 17 17 19 21 21 21 22 25 27 29 32 30 31 33 35 36 34 33 33
15 17 9 12 16 14 18 14 14 15 17 17 17 19 21 21 23 23 23 25 27 26 26 33 32 32 36 32 32 31 36 38 36
13 16 18 17 19 16 19 19 16 16 20 23 23 25 26 26 26 27 25 24 27 27 30 34 32 35 39 38 33 36 39 36 33
16 16 18 17 14 17 20 24 25 25 27 27 30 31 32 32 32 30 27 30 31 27 32 35 33 40 40 45 39 36 38 40 41
21 24 22 19 15 18 22 25 29 30 31 32 34 37 39 41 36 33 35 36 36 30 33 39 38 44 38 35 36 40 46 45 41
25 27 24 23 23 23 29 33 35 36 30 28 32 38 40 44 40 36 40 41 39 33 42 50 44 34 33 34 37 39 42 41 38
37 32 32 30 31 33 36 38 39 38 33 30 34 37 40 39 33 26 46 48 46 43 39 44 35 33 37 39 43 43 40 34 35
39 40 36 39 42 42 45 42 38 32 33 30 33 32 30 26 31 39 42 42 48 39 37 37 29 33 35 39 44 38 30 32 36
41 38 37 40 46 49 51 51 46 33 31 31 30 29 26 27 30 32 30 22 22 15 11 23 27 31 33 37 33 27 31 35 38
39 41 42 47 54 52 48 43 42 32 25 33 29 30 28 24 26 31 19 21 19 23 26 26 29 33 36 35 28 28 33 37 41
31 36 42 47 49 48 53 53 48 51 33 28 19 32 25 28 29 22 18 24 23 23 25 26 30 33 35 26 27 31 33 37 42
49 48 39 42 41 38 38 39 40 44 39 35 36 33 32 32 28 26 24 25 25 29 28 28 33 34 24 23 27 32 33 38 43